Weather History for Goshen, IN

Change the Weather History Date:

Wednesday, March 27, 2013

  Actual Average Record
Temperature  
Mean Temperature 35 °F -  
Max Temperature 43 °F 51 °F 75 °F (1989)
Min Temperature 28 °F 33 °F 0 °F (1965)
Degree Days  
Heating Degree Days 30    
Moisture  
Dew Point 25 °F    
Average Humidity 68    
Maximum Humidity 89    
Minimum Humidity 41    
Precipitation  
Precipitation 0.00 in - - ()
Sea Level Pressure  
Sea Level Pressure 30.26 in    
Wind  
Wind Speed 9 mph (WNW)    
Max Wind Speed 17 mph    
Max Gust Speed 23 mph    
Visibility 9 miles    
Events      
Averages and records for this station are not official NWS values.
T = Trace of Precipitation, MM = Missing Value Source: NWS Daily Summary

Daily Weather History Graph

Daily Weather History Graph

Search for Another Location

Airport:

Trip Planner

Search our weather history database for the weather conditions in past years. The results will help you decide how hot, cold, wet, or windy it might be!

Date:

Astronomy

Mar. 27, 2013 Rise Set
Actual Time 7:34 AM EDT 8:03 PM EDT
Civil Twilight 7:06 AM EDT 8:31 PM EDT
Nautical Twilight 6:33 AM EDT 9:03 PM EDT
Astronomical Twilight 6:00 AM EDT 9:37 PM EDT
Moon 8:47 PM EDT (3/27) 7:24 AM EDT (3/27)
Length of Visible Light 13h 24m
Length of Day
12h 29m
Full, 100% of the Moon is Illuminated
Mar 27
Full
Apr 3
Last Quarter
Apr 10
New
Apr 18
First Quarter
Apr 25
Full

Hourly Weather History & Observations

Time (EDT) Temp. Windchill Dew Point Humidity Pressure Visibility Wind Dir Wind Speed Gust Speed Precip Events Conditions
12:53 AM 33.1 °F 26.1 °F 27.0 °F 78% 30.22 in 10.0 mi WNW 8.1 mph - N/A   Overcast
1:53 AM 33.1 °F 26.9 °F 28.0 °F 82% 30.22 in 10.0 mi WNW 6.9 mph - N/A   Overcast
2:53 AM 33.1 °F 26.9 °F 28.0 °F 82% 30.22 in 10.0 mi WNW 6.9 mph - N/A   Overcast
3:53 AM 33.1 °F 26.9 °F 28.9 °F 85% 30.22 in 10.0 mi WNW 6.9 mph - N/A   Overcast
4:53 AM 33.1 °F 26.1 °F 28.9 °F 85% 30.23 in 10.0 mi WNW 8.1 mph - N/A   Overcast
5:53 AM 32.0 °F 25.6 °F 28.0 °F 85% 30.23 in 10.0 mi WNW 6.9 mph - N/A   Overcast
6:53 AM 32.0 °F 26.4 °F 27.0 °F 82% 30.24 in 9.0 mi WNW 5.8 mph - N/A   Overcast
7:29 AM 30.2 °F 25.4 °F 26.6 °F 86% 30.21 in 8.0 mi NW 4.6 mph - N/A   Overcast
7:39 AM 30.2 °F 25.4 °F 26.6 °F 86% 30.22 in 6.0 mi WNW 4.6 mph - N/A   Mostly Cloudy
7:53 AM 28.9 °F 23.9 °F 26.1 °F 89% 30.25 in 6.0 mi WNW 4.6 mph - N/A   Scattered Clouds
8:53 AM 33.1 °F 27.7 °F 28.9 °F 85% 30.27 in 6.0 mi West 5.8 mph - N/A   Overcast
9:53 AM 36.0 °F 28.5 °F 30.0 °F 79% 30.28 in 10.0 mi WNW 10.4 mph - N/A   Overcast
10:53 AM 37.9 °F 30.5 °F 30.0 °F 73% 30.28 in 10.0 mi WNW 11.5 mph - N/A   Overcast
11:53 AM 39.9 °F 31.4 °F 28.9 °F 65% 30.28 in 10.0 mi WNW 16.1 mph 19.6 mph N/A   Overcast
12:53 PM 41.0 °F 33.1 °F 27.0 °F 57% 30.28 in 10.0 mi WNW 15.0 mph - N/A   Overcast
1:53 PM 41.0 °F 33.9 °F 23.0 °F 49% 30.28 in 10.0 mi NW 12.7 mph - N/A   Overcast
2:53 PM 41.0 °F 33.5 °F 21.9 °F 47% 30.28 in 10.0 mi WNW 13.8 mph 23.0 mph N/A   Overcast
3:53 PM 42.1 °F 35.2 °F 21.9 °F 45% 30.27 in 10.0 mi WNW 12.7 mph - N/A   Overcast
4:53 PM 42.1 °F 34.2 °F 21.0 °F 43% 30.27 in 10.0 mi WNW 16.1 mph - N/A   Overcast
5:53 PM 39.9 °F 32.1 °F 19.9 °F 45% 30.27 in 10.0 mi WNW 13.8 mph 23.0 mph N/A   Mostly Cloudy
6:53 PM 41.0 °F 32.5 °F 19.0 °F 41% 30.27 in 10.0 mi WNW 17.3 mph - N/A   Clear
7:53 PM 37.9 °F 30.9 °F 18.0 °F 45% 30.29 in 10.0 mi WNW 10.4 mph - N/A   Clear
8:53 PM 34.0 °F 27.2 °F 19.0 °F 54% 30.29 in 10.0 mi NW 8.1 mph - N/A   Clear
9:53 PM 33.1 °F 30.0 °F 19.0 °F 56% 30.30 in 10.0 mi West 3.5 mph - N/A   Clear
10:53 PM 28.9 °F 23.9 °F 19.9 °F 69% 30.31 in 10.0 mi WNW 4.6 mph - N/A   Clear
11:53 PM 28.0 °F 24.2 °F 19.0 °F 69% 30.31 in 10.0 mi West 3.5 mph - N/A   Clear